Regional Weather Roundup
Issued by NWS

Home | Current Version | Previous Version | Text Only | Print | Product List | Glossary Off
Versions: 1 2 3 4 5 6 7 8 9 10 11 12 13 14 15 16 17 18 19 20 21 22 23 24 25 26 27 28 29 30 31 32 33 34 35 36 37 38 39 40 41 42 43 44 45 46 47 48 49 50

000
ASUS45 KBOU 242310
RWRCO

WEATHER ROUNDUP FOR COLORADO
NATIONAL WEATHER SERVICE DENVER/BOULDER CO
500 PM MDT SAT SEP 24 2016

NOTE: "FAIR" INDICATES FEW OR NO CLOUDS BELOW 12000 FEET WITH NO
SIGNIFICANT WEATHER AND/OR OBSTRUCTIONS TO VISIBILITY.

COZ001>005-013-030-031-250000-
...NORTHWEST COLORADO...

CITY           SKY/WX    TMP DP  RH WIND       PRES   REMARKS
CRAIG          LGT RAIN  46  41  82 W9        30.27R
HAYDEN         CLOUDY    43  36  75 W10G17    30.27R
MEEKER         CLOUDY    49  39  68 NW6       30.28R
MOUNT WERNER   NOT AVBL
STEAMBOAT SPGS CLOUDY    41  38  91 W10       30.26R
WALDEN           N/A     43  28  56 W15G22    30.25R
$$

COZ006>008-011-250000-
...WEST CENTRAL VALLEYS...

CITY           SKY/WX    TMP DP  RH WIND       PRES   REMARKS
GRAND JUNCTION CLOUDY    58  41  53 NW7       30.22R
MONTROSE       CLOUDY    57  36  45 NW5       30.26R
EAGLE          PTSUNNY   52  36  54 SW17      30.26R
RIFLE          LGT RAIN  51  44  77 CALM      30.26R
DELTA          NOT AVBL
NUCLA          CLOUDY    57  32  38 NW3       30.26S
$$

COZ017>023-064>068-250000-
...SOUTHWEST COLORADO...

CITY           SKY/WX    TMP DP  RH WIND       PRES   REMARKS
DURANGO        CLOUDY    57  33  40 W14       30.21S
CORTEZ         CLOUDY    58  34  40 NW3       30.22S
PAGOSA SPRINGS PTSUNNY   55  30  38 SW5       30.24S
TELLURIDE      PTSUNNY   45  31  59 W7        30.33F
WOLF CREEK PAS CLOUDY    34  30  86 S10       30.41S WCI  26
$$

COZ009-010-012-014-032>034-037-058>063-250000-
...CENTRAL COLORADO...

CITY           SKY/WX    TMP DP  RH WIND       PRES   REMARKS
ASPEN          CLOUDY    45  35  68 N7        30.29R
BUENA VISTA    PTSUNNY   53  24  32 W20       30.23R
COPPER MTN     CLOUDY    34  28  80 MISG      30.36R
BERTHOUD PASS  CLOUDY    25  10  54 NW23      30.33R WCI  10
COTTONWOOD PAS CLOUDY    45  25  45 NW5       30.30R
GUNNISON       CLOUDY    46  34  61 SW10      30.28S
KREMMLING      CLOUDY    50  32  50 W8        30.26R
LEADVILLE      CLOUDY    38  25  59 NW13G20   30.30R
SALIDA         FAIR      53  29  39 SW20G25   30.30R
SUNLIGHT       FOG       34  32  93 MISG      30.40R VSB<1/4
WILKERSON PASS FAIR      36  19  51 W8G17     30.36R
$$

COZ069>075-250000-
...SAN LUIS VALLEY/SANGRE DE CRISTO MOUNTAINS...

CITY           SKY/WX    TMP DP  RH WIND       PRES   REMARKS
ALAMOSA        PTSUNNY   60  27  28 NE3       30.17R
LA VETA PASS   FAIR      48  28  46 MISG      30.29R
SAGUACHE       NOT AVBL
$$

COZ035-036-038>040-250000-
...NORTHERN COLORADO FRONT RANGE...

CITY           SKY/WX    TMP DP  RH WIND       PRES   REMARKS
DENVER INTL AP PTSUNNY   66  23  19 W18       30.05R
DMNS CITY PARK   N/A     65  24  20 W20       30.06R
AURORA         PTSUNNY   65  25  21 NW10G17   30.08R
FRONT RANGE AP PTSUNNY   66  25  20 W15G24    30.07R
ERIE MUNI ARPT FAIR      67  24  19 W23G29    30.06R
BOULDER MUN AP FAIR      64  28  25 W23G30    30.07R
CENTENNIAL     PTSUNNY   66  25  21 NW9       30.08R
BROOMFIELD     NOT AVBL
FORT COLLINS   FAIR      64  28  25 NW9       30.05R
LONGMONT       FAIR      70  27  20 W15G22    30.07R
$$

COZ041-046-047-076>085-087-088-250000-
...PIKES PEAK/PALMER DIVIDE AND SOUTHERN FOOTHILLS...

CITY           SKY/WX    TMP DP  RH WIND       PRES   REMARKS
COLO. SPRINGS  PTSUNNY   70  24  17 NW16      30.07R
A. F. ACADEMY  PTSUNNY   64  25  22 NW18G25   30.08R
SCHRIEVER AFB  NOT AVBL
ELLICOTT       FAIR     N/A N/A N/A SW8G21    30.04R
FALCON         FAIR      66  21  17 NW10G17   30.12R
FORT CARSON    PTSUNNY   71  24  17 NW10      30.03R
LIMON          FAIR      69  21  16 W8        30.01R
MONUMENT HILL  CLOUDY    55  23  28 N13G22    30.14R
TRINIDAD       FAIR      72  22  15 N7        30.03S
$$

COZ042>045-048>051-090-091-250000-
...NORTHEAST COLORADO...

CITY           SKY/WX    TMP DP  RH WIND       PRES   REMARKS
GREELEY ARPT   FAIR      70  30  23 NW9G18    30.04R
AKRON          FAIR      71  25  17 W15G21    30.01R
BURLINGTON     FAIR      72  30  21 SW8       29.98S
WRAY           FAIR      77  30  18 CALM      29.96R
STERLING       PTSUNNY   72  30  21 NW13G20   29.98R
HOLYOKE        FAIR      79  30  17 W5        29.96S
FORT MORGAN    FAIR      73  24  16 NW10G18   30.02R
$$

COZ086-089-092>099-250000-
...SOUTHEAST COLORADO...

CITY           SKY/WX    TMP DP  RH WIND       PRES   REMARKS
PUEBLO         FAIR      75  24  15 W23       29.99R
LA JUNTA       FAIR      76  26  15 SE5       29.97R
LAMAR          FAIR      76  32  20 E5        29.94S
SPRINGFIELD    NOT AVBL
$$



USA.gov is the U.S. government's official web portal to all federal, state and local government web resources and services.